This is the latest recevied weather packets stored in our database for station/object N6GPM. If no packets are shown the sender has not sent any weather packets the latest 10 day(s).
| Time | Temp. | Humidity | Pressure | Rain* | Wind** | Luminosity | Snow |
|---|---|---|---|---|---|---|---|
| 1787657154 | 25° C | 46% | 1018.6 hPa | 0 mm | - | 0 W/m² | - |
| 1787656851 | 25° C | 45% | 1018.5 hPa | 0 mm | - | 0 W/m² | - |
| 1787656546 | 25° C | 45% | 1018.5 hPa | 0 mm | - | 0 W/m² | - |
| 1787656241 | 25° C | 44% | 1018.6 hPa | 0 mm | - | 0 W/m² | - |
| 1787655937 | 24.44° C | 46% | 1018.6 hPa | 0 mm | - | 0 W/m² | - |
| 1787655633 | 25° C | 46% | 1018.7 hPa | 0 mm | - | 0 W/m² | - |
| 1787655332 | 25° C | 46% | 1018.8 hPa | 0 mm | - | 0 W/m² | - |
| 1787655031 | 25° C | 47% | 1018.5 hPa | 0 mm | - | 0 W/m² | - |
| 1787654728 | 25° C | 46% | 1018.8 hPa | 0 mm | - | 0 W/m² | - |
| 1787654423 | 25° C | 45% | 1018.7 hPa | 0 mm | - | 0 W/m² | - |
| 1787654119 | 25° C | 44% | 1018.4 hPa | 0 mm | - | 0 W/m² | - |
| 1787653818 | 25° C | 45% | 1018.5 hPa | 0 mm | - | 0 W/m² | - |
| 1787653514 | 25° C | 45% | 1018.7 hPa | 0 mm | - | 0 W/m² | - |
| 1787653209 | 25° C | 45% | 1018.5 hPa | 0 mm | - | 0 W/m² | - |
| 1787652904 | 25° C | 46% | 1018.5 hPa | 0 mm | - | 0 W/m² | - |
| 1787652599 | 25° C | 47% | 1018.5 hPa | 0 mm | - | 0 W/m² | - |
| 1787652298 | 25° C | 48% | 1018.5 hPa | 0 mm | - | 0 W/m² | - |
| 1787651994 | 25° C | 48% | 1018.5 hPa | 0 mm | - | 0 W/m² | - |
| 1787651692 | 25.56° C | 45% | 1018.5 hPa | 0 mm | - | 0 W/m² | - |
| 1787651387 | 25.56° C | 45% | 1018.6 hPa | 0 mm | - | 0 W/m² | - |
| 1787651083 | 25.56° C | 44% | 1018.6 hPa | 0 mm | - | 0 W/m² | - |
| 1787650778 | 25° C | 44% | 1018.9 hPa | 0 mm | - | 0 W/m² | - |
| 1787650474 | 25° C | 47% | 1018.7 hPa | 0 mm | - | 0 W/m² | - |
| 1787650169 | 25° C | 48% | 1018.8 hPa | 0 mm | - | 0 W/m² | - |
| 1787649870 | 25° C | 48% | 1018.7 hPa | 0 mm | - | 0 W/m² | - |
* Rain latest hour (hover to see other rain measurements)
** Current wind speed in m/s (hover to see current wind gust speed)